CAPE
61 52 55 57 43 39 31 16 8 7 4 3 2 0 0 0 1 0 0 0 0 0 0 0 0 0 0 0 0 0 0 13 69 416 79 9 361 0 177 351 435 371 259 173 1
34 39 44 47 38 31 17 13 11 7 4 2 2 2 0 0 0 0 0 0 0 0 0 0 0 0 0 0 0 0 0 3 4 142 53 76 498 381 740 621 443 586 228 36 0
16 13 11 25 23 25 17 6 9 8 5 3 1 3 0 0 0 0 0 0 0 0 0 0 0 0 0 0 0 0 0 0 0 25 72 121 113 88 828 709 480 380 161 6 0
31 33 26 27 19 20 17 9 7 9 7 4 2 5 0 0 0 0 0 0 0 0 0 0 0 0 0 0 0 0 0 0 0 19 58 171 103 488 689 99 636 266 0 0 0
16 25 23 21 14 12 7 5 8 7 5 4 3 4 0 0 0 0 0 0 0 0 0 0 0 0 0 0 0 0 0 0 0 0 5 16 67 13 0 393 341 8 0 0 0
23 18 19 17 12 10 12 8 5 2 3 2 2 4 0 0 0 0 0 0 0 0 0 0 0 0 0 0 0 0 0 0 0 0 0 9 0 17 0 9 0 0 0 0 0
19 27 10 18 15 12 7 4 1 0 0 1 5 4 0 0 0 0 0 0 0 0 0 0 0 0 0 0 0 0 0 0 0 0 0 0 1 0 0 0 1 0 1 0 0
29 15 10 8 14 11 5 2 0 0 3 5 2 2 0 0 0 0 0 0 0 0 0 0 0 0 0 0 0 0 0 0 0 0 0 0 107 0 0 0 0 0 0 0 0
23 26 9 14 19 15 5 2 0 0 4 4 0 0 0 0 0 0 0 0 0 0 0 0 0 0 0 0 0 0 0 0 0 0 0 0 0 0 0 0 0 0 0 0 0
12 19 11 17 19 10 0 0 0 0 3 0 0 0 0 0 0 0 0 0 0 0 0 0 0 0 0 0 0 0 0 0 0 0 0 0 0 0 0 0 0 0 0 0 0
22 18 16 11 11 2 0 0 0 0 0 0 0 0 0 0 0 0 0 0 0 0 0 0 0 0 0 0 0 0 0 0 0 0 0 0 0 0 0 0 0 0 0 0 0
32 26 15 15 4 0 0 0 1 0 5 0 0 0 0 0 0 0 0 0 0 0 0 0 0 0 0 0 0 0 0 0 0 0 0 0 0 0 0 0 0 0 0 0 0
26 19 24 13 0 0 0 0 0 0 7 0 0 0 0 0 0 0 0 0 0 0 0 0 0 0 0 0 0 0 0 0 0 0 0 0 0 0 0 0 0 0 0 0 0
14 21 29 40 0 0 0 0 0 0 3 0 0 0 0 0 0 0 0 0 0 0 0 0 0 0 0 0 0 0 0 0 0 0 0 0 26 0 0 0 0 0 0 0 0
17 14 18 7 2 0 0 0 0 0 0 0 0 0 0 0 0 0 0 0 0 0 0 0 0 0 0 0 0 0 0 0 0 0 0 0 0 0 0 0 0 0 0 0 0
13 9 15 0 0 0 0 0 0 0 0 0 0 0 0 0 0 0 0 0 0 0 0 0 0 0 0 0 0 0 0 0 0 0 0 0 0 0 0 0 0 0 0 0 0
29 2 0 0 0 0 0 0 0 0 0 0 0 0 0 0 0 0 0 0 0 0 0 0 0 0 0 0 0 0 0 0 0 0 1 0 0 0 0 0 0 0 0 0 0
23 0 0 0 0 0 0 12 0 0 0 0 0 0 0 0 0 0 0 0 0 0 0 0 0 0 0 0 0 0 0 0 0 0 0 0 0 0 0 0 0 0 0 0 0
0 0 0 0 0 0 6 8 0 0 0 0 0 0 0 0 0 0 0 0 0 0 0 0 0 0 0 0 0 0 0 0 0 0 0 0 0 0 0 0 0 0 0 0 0
0 0 0 0 0 15 26 0 0 0 0 0 0 0 0 0 0 0 0 0 0 0 0 0 0 0 0 0 0 0 0 0 0 0 0 0 0 0 0 0 0 0 0 0 0
0 0 0 0 0 56 0 0 0 0 0 0 0 0 0 0 0 0 0 0 0 0 0 0 0 0 0 0 0 0 0 0 0 0 0 0 0 0 0 0 0 0 0 0 0
0 0 0 0 16 8 1 2 3 0 5 0 0 0 0 0 0 0 0 0 0 0 0 0 0 0 0 0 0 0 0 0 0 0 0 0 0 0 0 0 0 0 0 0 0
0 1 0 0 0 0 0 1 7 1 3 0 0 5 1 0 0 0 0 0 0 0 0 0 0 0 0 0 0 0 0 0 0 0 0 0 0 0 0 0 0 0 0 0 0
0 0 0 0 2 2 2 2 0 0 9 5 31 0 0 2 1 0 0 0 0 0 0 0 0 0 0 0 0 0 0 0 0 0 0 0 0 0 0 0 0 0 0 0 0
0 3 5 1 0 0 1 0 0 0 0 0 5 2 9 7 4 2 0 0 0 0 0 0 0 0 0 0 0 0 0 0 0 0 0 0 0 0 0 0 0 0 0 0 0
0 1 3 0 0 0 0 1 0 0 0 0 0 2 5 6 5 3 6 0 0 0 0 0 0 0 0 0 0 0 0 0 0 0 0 0 0 0 0 0 0 0 0 0 0
0 0 3 0 0 0 2 4 0 0 0 0 0 7 0 2 0 0 0 1 0 2 0 0 0 0 0 0 0 0 0 0 0 0 0 0 0 0 0 0 0 0 0 0 0
CIN
-0 -0 -0 -0 -0 -0 -0 -0 -0 -0 -0 -0 -0 -0 -0 -0 -0 -0 -0 -0 -0 -0 -0 -0 -0 -0 -0 -0 -0 -0 -0 -103 -130 -125 -221 -279 -145 -0 -201 -114 -101 -138 -150 -170 -27
-0 -0 -0 -0 -0 -0 -0 -0 -0 -0 -0 -0 -0 -0 -0 -0 -0 -0 -0 -0 -0 -0 -0 -0 -0 -0 -0 -0 -0 -0 -0 -49 -64 -195 -243 -273 -119 -156 -80 -78 -89 -57 -144 -264 -0
-0 -0 -0 -0 -0 -0 -0 -0 -0 -0 -0 -0 -0 -0 -0 -0 -0 -0 -0 -0 -0 -0 -0 -0 -0 -0 -0 -0 -0 -0 -0 -0 -0 -311 -238 -243 -249 -270 -79 -67 -104 -117 -161 -0 -0
-0 -0 -0 -0 -0 -0 -0 -0 -0 -0 -0 -0 -0 -0 -0 -0 -0 -0 -0 -0 -0 -0 -0 -0 -0 -0 -0 -0 -0 -0 -0 -0 -0 -373 -298 -227 -275 -137 -91 -247 -76 -130 -0 -0 -0
-0 -0 -0 -0 -0 -0 -0 -0 -0 -0 -0 -0 -0 -0 -0 -0 -0 -0 -0 -0 -0 -0 -0 -0 -0 -0 -0 -0 -0 -0 -0 -0 -0 -0 -267 -428 -360 -242 -0 -154 -150 -222 -0 -0 -0
-0 -0 -0 -0 -0 -0 -0 -0 -0 -0 -0 -0 -0 -0 -0 -0 -0 -0 -0 -0 -0 -0 -0 -0 -0 -0 -0 -0 -0 -0 -0 -0 -0 -0 -0 -368 -0 -369 -0 -410 -0 -0 -0 -0 -0
-0 -0 -0 -0 -0 -0 -0 -0 -0 -0 -0 -0 -0 -0 -0 -0 -0 -0 -0 -0 -0 -0 -0 -0 -0 -0 -0 -0 -0 -0 -0 -0 -0 -0 -0 -0 -65 -0 -0 -16 -0 -0 -0 -0 -0
-0 -0 -0 -0 -0 -0 -0 -0 -0 -0 -0 -0 -0 -0 -0 -0 -0 -0 -0 -0 -0 -0 -0 -0 -0 -0 -0 -0 -0 -0 -0 -0 -0 -0 -0 -0 -82 -0 -0 -0 -0 -0 -0 -0 -0
-0 -0 -0 -0 -0 -0 -0 -0 -0 -0 -0 -0 -0 -0 -0 -0 -0 -0 -0 -0 -0 -0 -0 -0 -0 -0 -0 -0 -0 -0 -0 -0 -0 -0 -0 -0 -0 -0 -0 -0 -0 -0 -0 -0 -0
-0 -0 -0 -0 -0 -0 -0 -0 -0 -0 -0 -0 -0 -0 -0 -0 -0 -0 -0 -0 -0 -0 -0 -0 -0 -0 -0 -0 -0 -0 -0 -0 -0 -0 -0 -0 -0 -0 -0 -0 -0 -0 -0 -0 -0
-0 -0 -0 -0 -0 -0 -0 -0 -0 -0 -0 -0 -0 -0 -0 -0 -0 -0 -0 -0 -0 -0 -0 -0 -0 -0 -0 -0 -0 -0 -0 -0 -0 -0 -0 -0 -0 -0 -0 -0 -0 -0 -0 -0 -0
-0 -0 -0 -0 -0 -0 -0 -0 -0 -0 -0 -0 -0 -0 -0 -0 -0 -0 -0 -0 -0 -0 -0 -0 -0 -0 -0 -0 -0 -0 -0 -0 -0 -0 -0 -0 -0 -0 -0 -0 -0 -0 -0 -0 -0
-0 -0 -0 -0 -0 -0 -0 -0 -0 -0 -0 -0 -0 -0 -0 -0 -0 -0 -0 -0 -0 -0 -0 -0 -0 -0 -0 -0 -0 -0 -0 -0 -0 -0 -0 -0 -0 -0 -0 -0 -0 -0 -0 -0 -0
-0 -0 -0 -0 -0 -0 -0 -0 -0 -0 -0 -0 -0 -0 -0 -0 -0 -0 -0 -0 -0 -0 -0 -0 -0 -0 -0 -0 -0 -0 -0 -0 -0 -0 -0 -0 -1 -0 -0 -0 -0 -0 -0 -0 -0
-0 -0 -0 -0 -0 -0 -0 -0 -0 -0 -0 -0 -0 -0 -0 -0 -0 -0 -0 -0 -0 -0 -0 -0 -0 -0 -0 -0 -0 -0 -0 -0 -0 -0 -0 -0 -0 -0 -0 -0 -0 -0 -0 -0 -0
-0 -0 -0 -0 -0 -0 -0 -0 -0 -0 -0 -0 -0 -0 -0 -0 -0 -0 -0 -0 -0 -0 -0 -0 -0 -0 -0 -0 -0 -0 -0 -0 -0 -0 -0 -0 -0 -0 -0 -0 -0 -0 -0 -0 -0
-0 -0 -0 -0 -0 -0 -0 -0 -0 -0 -0 -0 -0 -0 -0 -0 -0 -0 -0 -0 -0 -0 -0 -0 -0 -0 -0 -0 -0 -0 -0 -0 -0 -0 -0 -0 -0 -0 -0 -0 -0 -0 -0 -0 -0
-0 -0 -0 -0 -0 -0 -0 -3 -0 -0 -0 -0 -0 -0 -0 -0 -0 -0 -0 -0 -0 -0 -0 -0 -0 -0 -0 -0 -0 -0 -0 -0 -0 -0 -0 -0 -0 -0 -0 -0 -0 -0 -0 -0 -0
-0 -0 -0 -0 -0 -0 -9 -0 -0 -0 -0 -0 -0 -0 -0 -0 -0 -0 -0 -0 -0 -0 -0 -0 -0 -0 -0 -0 -0 -0 -0 -0 -0 -0 -0 -0 -0 -0 -0 -0 -0 -0 -0 -0 -0
-0 -0 -0 -0 -0 -15 -1 -0 -1 -0 -0 -0 -0 -0 -0 -0 -0 -0 -0 -0 -0 -0 -0 -0 -0 -0 -0 -0 -0 -0 -0 -0 -0 -0 -0 -0 -0 -0 -0 -0 -0 -0 -0 -0 -0
-0 -0 -0 -0 -9 -2 -0 -0 -0 -0 -0 -0 -0 -0 -0 -0 -0 -0 -0 -0 -0 -0 -0 -0 -0 -0 -0 -0 -0 -0 -0 -0 -0 -0 -0 -0 -0 -0 -0 -0 -0 -0 -0 -0 -0
-0 -0 -0 -0 -4 -0 -1 -0 -0 -0 -7 -0 -0 -0 -0 -0 -0 -0 -0 -0 -0 -0 -0 -0 -0 -0 -0 -0 -0 -0 -0 -0 -0 -0 -0 -0 -0 -0 -0 -0 -0 -0 -0 -0 -0
-0 -0 -0 -0 -0 -0 -0 -0 -0 -0 -6 -1 -2 -1 -0 -0 -0 -0 -0 -0 -0 -0 -0 -0 -0 -0 -0 -0 -0 -0 -0 -0 -0 -0 -0 -0 -0 -0 -0 -0 -0 -0 -0 -0 -0
-0 -0 -0 -0 -0 -0 -0 -0 -0 -0 -0 -0 -0 -0 -0 -1 -1 -0 -0 -0 -0 -0 -0 -0 -0 -0 -0 -0 -0 -0 -0 -0 -0 -0 -0 -0 -0 -0 -0 -0 -0 -0 -0 -0 -0
-0 -0 -0 -0 -0 -0 -0 -0 -0 -0 -0 -0 -0 -0 -0 -0 -6 -0 -0 -0 -0 -0 -0 -0 -0 -0 -0 -0 -0 -0 -0 -0 -0 -0 -0 -0 -0 -0 -0 -0 -0 -0 -0 -0 -0
-0 -0 -0 -0 -0 -0 -0 -0 -0 -0 -0 -0 -0 -0 -0 -0 -0 -0 -0 -0 -0 -0 -0 -0 -0 -0 -0 -0 -0 -0 -0 -0 -0 -0 -0 -0 -0 -0 -0 -0 -0 -0 -0 -0 -0
-0 -1 -0 -0 -0 -0 -0 -0 -0 -0 -0 -0 -0 -0 -0 -0 -0 -0 -0 -0 -0 -0 -0 -0 -0 -0 -0 -0 -0 -0 -0 -0 -0 -0 -0 -0 -0 -0 -0 -0 -0 -0 -0 -0 -0
Wind_Speed
18 18 18 18 18 18 18 18 18 18 18 18 18 17 17 17 17 1 7 10 8 6 7 2 3 4 3 2 1 2 3 6 10 12 7 10 7 3 2 8 2 2 9 16 18
21 22 23 22 21 19 18 19 20 20 19 19 19 18 17 16 5 9 11 8 9 12 4 4 5 6 4 3 0 1 4 11 6 9 9 13 11 11 7 6 3 8 15 21 20
20 20 21 21 21 21 20 20 20 21 21 20 19 19 17 14 5 5 3 15 12 9 3 2 4 4 4 2 3 3 3 5 6 6 15 14 9 4 14 7 5 14 16 16 14
20 21 21 22 21 22 21 21 22 22 22 21 19 19 18 2 3 2 8 14 12 7 5 4 3 6 4 7 3 3 1 4 6 7 10 14 11 9 9 1 10 15 16 15 14
20 20 20 21 23 23 24 24 24 23 22 21 18 16 7 1 10 4 7 11 8 6 6 5 5 5 5 6 6 2 3 4 8 12 10 10 7 6 5 7 19 16 15 14 12
20 21 22 22 22 23 24 24 24 24 23 20 18 11 2 5 3 5 8 5 6 4 5 5 6 4 5 4 3 4 7 7 7 12 6 12 6 3 3 13 17 17 16 14 13
20 22 22 23 23 24 25 26 26 25 25 24 15 5 3 14 3 5 4 4 5 4 5 4 3 3 6 7 6 7 8 7 6 3 6 13 5 3 9 10 15 15 15 14 13
23 22 24 25 25 26 28 28 29 26 21 12 9 5 9 3 2 2 7 3 3 3 1 2 3 4 2 10 4 6 4 9 2 1 4 6 10 7 9 13 13 14 12 15 12
23 24 24 26 25 26 29 29 26 12 5 11 7 4 10 3 3 6 6 6 5 2 1 3 2 4 5 9 6 3 8 5 7 1 4 3 6 12 11 11 12 12 11 11 10
24 24 24 25 26 28 28 23 10 1 3 3 1 2 5 1 2 3 5 6 4 6 3 3 4 4 4 8 14 7 7 3 9 8 4 5 6 14 13 13 13 12 12 11 9
26 26 26 26 27 26 13 5 4 2 2 6 2 5 4 10 4 5 5 8 4 4 6 2 6 13 18 12 8 11 12 13 3 6 8 7 7 16 14 14 15 13 12 11 10
23 24 25 26 28 15 5 6 5 5 11 13 17 16 14 6 5 4 11 9 6 7 7 4 13 12 6 8 11 13 14 9 4 8 5 4 4 12 13 14 16 15 14 14 13
22 23 24 27 21 4 4 5 6 7 5 10 7 7 8 11 7 6 13 7 8 9 12 9 2 12 9 9 10 9 15 12 9 8 4 10 3 9 13 9 13 15 14 16 18
25 24 24 26 5 6 4 7 9 3 3 7 4 7 6 10 7 10 10 11 5 14 11 8 4 12 14 13 12 11 13 16 18 16 8 9 8 9 17 17 14 17 18 18 17
27 26 25 19 5 4 5 12 11 3 4 1 2 0 5 9 6 9 7 4 10 8 9 10 14 12 11 14 12 9 16 17 17 16 8 9 6 5 11 15 21 22 21 20 18
28 29 27 3 1 6 9 13 1 3 7 5 3 1 4 6 3 3 8 4 5 6 2 5 2 9 12 8 17 17 15 9 6 4 8 12 12 6 10 24 24 23 21 21 21
29 28 16 2 3 3 7 3 2 3 7 8 7 7 8 5 8 5 14 16 13 10 11 5 6 4 5 11 9 12 18 6 6 6 5 3 10 9 13 13 23 24 24 23 20
28 24 7 3 5 4 3 2 1 2 4 7 7 15 7 7 7 5 11 17 9 7 10 13 10 15 8 8 12 14 16 7 11 6 6 4 8 6 11 15 18 14 17 19 22
25 4 3 6 3 1 1 2 4 1 5 9 13 4 5 5 3 8 11 17 15 9 6 8 8 5 7 6 17 11 12 10 8 3 4 6 4 7 11 9 11 15 18 22 24
5 4 4 8 0 2 1 2 2 4 7 5 5 6 5 9 8 5 9 10 10 10 3 6 4 7 13 11 5 14 13 10 3 10 7 5 5 9 6 14 9 15 20 20 20
3 2 5 10 1 1 1 3 4 4 8 5 5 6 6 5 6 4 3 3 15 12 7 5 1 1 13 16 17 7 13 2 6 3 9 5 5 8 14 10 16 18 18 20 22
3 3 4 8 3 3 2 7 8 4 6 4 5 6 7 8 6 4 4 3 8 9 18 8 3 4 15 4 9 12 11 15 9 8 2 3 5 1 5 6 11 13 14 15 18
4 3 5 3 4 4 6 6 4 10 8 7 5 6 7 7 6 3 6 4 7 2 10 8 5 3 3 3 2 16 7 10 5 5 9 9 4 3 2 5 7 11 14 16 18
2 4 5 5 1 2 5 7 10 7 2 7 4 5 10 4 2 9 8 6 13 7 8 12 6 12 9 9 6 10 10 12 12 7 9 10 7 6 6 7 7 10 13 16 18
4 3 3 5 5 8 6 5 11 11 6 9 5 12 9 5 6 6 8 11 11 15 5 3 11 7 10 2 4 8 15 16 19 10 12 10 12 11 13 12 12 14 15 17 19
3 4 4 4 8 7 9 8 9 9 4 7 12 15 11 4 6 7 10 6 5 13 8 7 2 6 10 9 8 3 8 18 20 10 6 8 8 3 4 9 12 15 18 19 20
3 1 2 4 6 5 3 7 9 12 5 7 13 14 11 6 16 19 13 13 14 7 8 6 4 2 7 6 5 7 17 9 6 6 12 11 7 9 7 12 16 17 19 21 22
Wind_Direction
6 2 359 1 359 355 353 350 344 340 337 333 328 325 322 322 318 304 236 222 190 227 176 253 118 111 100 131 119 149 121 171 173 172 152 165 157 104 134 151 209 177 153 131 137
359 357 354 355 349 346 343 342 337 334 332 331 328 325 325 328 309 252 244 208 204 172 206 186 153 127 137 142 170 165 185 192 181 167 160 160 166 140 150 158 108 101 120 132 130
350 344 343 342 339 338 336 334 330 328 327 327 329 326 329 327 292 245 277 208 194 182 174 171 115 129 151 129 180 176 179 166 185 161 153 147 140 123 151 177 167 146 135 128 139
353 351 347 343 339 336 334 330 325 323 322 322 326 326 326 281 257 15 327 166 171 172 135 129 131 133 149 162 166 157 105 167 130 147 137 151 132 123 163 2 148 119 123 125 115
348 344 342 339 334 332 326 322 320 318 316 317 318 325 341 273 254 328 82 134 127 154 173 154 157 139 169 153 139 141 153 73 110 108 96 116 99 118 64 114 125 127 129 119 103
348 348 344 340 332 327 323 320 316 312 310 306 306 317 261 247 136 22 127 124 141 140 173 152 176 190 116 111 152 99 95 105 104 114 100 123 100 147 89 128 122 127 125 116 112
347 344 342 339 335 330 323 317 313 309 306 299 278 219 252 241 155 359 162 188 168 163 161 211 180 164 134 117 146 123 107 87 72 103 115 121 112 81 141 140 128 136 128 127 133
343 342 340 335 334 330 323 315 308 304 302 299 173 155 246 239 151 281 163 168 176 202 166 232 188 106 80 122 85 110 116 158 128 122 138 224 171 150 153 142 139 140 143 136 138
340 337 336 333 330 327 321 312 308 307 327 135 126 193 258 322 215 205 168 169 161 177 220 75 105 95 129 129 115 31 161 166 160 26 132 211 136 163 160 149 149 145 147 138 139
341 341 337 333 331 329 323 315 300 330 156 217 147 249 253 195 286 161 184 156 161 129 109 116 71 132 130 183 187 157 145 171 172 174 149 164 129 157 163 165 160 166 159 155 160
340 340 336 335 333 330 341 352 8 16 327 234 247 287 307 323 246 192 175 141 112 112 162 147 185 191 188 184 152 150 154 176 157 166 157 193 161 171 163 171 175 179 173 163 159
339 336 336 335 331 341 352 65 62 313 301 275 255 259 266 302 303 238 160 154 161 166 135 140 212 203 158 162 148 152 155 168 99 146 179 178 178 174 181 186 185 179 185 174 160
339 337 339 336 331 28 338 76 351 333 268 284 223 224 212 176 226 239 182 146 159 152 180 181 203 157 167 168 165 180 174 168 158 145 78 151 187 193 199 195 193 201 198 188 180
337 338 339 339 0 338 299 347 337 275 299 272 245 256 169 153 250 208 189 160 166 182 155 209 158 175 177 191 183 195 194 159 143 160 188 206 216 208 204 203 203 203 203 196 187
337 335 335 337 285 307 311 332 325 207 348 348 228 218 171 198 156 208 173 154 166 162 156 195 172 166 194 196 185 204 158 160 172 174 156 193 238 152 194 208 217 212 210 202 191
335 332 334 359 238 255 315 311 214 36 258 346 3 329 138 245 275 111 166 93 131 138 78 177 147 189 192 177 180 136 120 96 119 169 218 190 211 185 183 210 218 217 211 196 190
334 330 332 299 281 326 322 311 50 166 325 356 344 340 318 227 229 205 177 179 178 173 187 170 194 187 151 150 161 165 155 140 184 202 217 168 206 240 211 218 214 210 204 194 185
335 330 322 261 301 338 327 130 115 283 312 341 314 304 225 181 220 205 179 188 200 152 170 189 198 202 185 181 172 182 182 178 190 189 186 160 224 224 213 219 217 217 198 183 183
340 333 334 323 318 118 291 171 211 244 350 319 320 336 348 336 313 183 205 202 195 181 154 171 231 184 179 161 157 180 205 159 104 52 164 200 252 271 233 226 200 189 172 184 186
339 330 335 336 260 275 38 236 283 351 335 325 330 347 325 338 343 210 177 197 204 196 150 191 209 198 181 172 202 199 145 177 152 168 205 191 239 234 215 217 195 188 190 190 188
23 8 324 344 284 3 102 286 305 315 5 330 330 315 314 342 302 277 218 224 193 189 200 145 192 64 150 203 179 160 190 108 131 166 204 179 228 216 223 208 200 205 197 186 185
6 38 317 332 51 2 7 322 304 307 340 300 258 277 290 333 303 307 315 283 344 189 198 185 163 190 206 206 194 201 193 185 188 186 171 183 231 208 240 229 202 197 189 185 184
8 297 320 8 56 350 328 340 318 1 356 348 308 348 311 301 299 294 310 303 2 276 193 175 190 171 154 188 194 201 187 183 113 130 190 190 226 172 223 215 205 182 171 170 170
38 13 332 26 53 352 1 4 355 345 54 348 326 355 343 309 311 309 312 315 337 356 278 182 170 208 216 218 141 188 182 185 180 187 167 210 198 208 202 195 170 166 164 165 172
27 49 6 342 344 343 1 8 2 3 340 352 25 2 332 290 311 354 351 325 324 359 14 110 215 206 222 162 172 169 176 178 195 183 194 183 198 194 195 193 174 160 161 166 172
62 10 339 299 312 345 14 21 5 349 300 334 349 338 327 283 42 319 340 335 337 341 346 357 251 177 210 219 218 213 198 195 200 185 176 162 199 219 120 126 158 169 168 176 182
1 5 342 304 340 349 25 338 320 335 293 331 322 315 324 1 316 288 258 259 269 299 320 342 8 69 214 170 145 247 224 190 197 198 172 198 184 161 169 185 180 178 183 185 186